Zurück zum Katalog

CZ-6A DEB

AktivSSO
NORAD 54953·DEBRIS·🇨🇳 China

Gestartet Nov 11, 2022 von Taiyuan Satellite Launch Center

Loading…

Nächste Überflüge (nächste 24 Stunden)

TLE

AktuellSource: Space-Track

Epoche: Sep 14, 2026, 14:24 UTC

1 54953U 22151SS  26257.60007971  .00002466  00000-0  55230-3 0  9995
2 54953  98.5398 305.2046 0078494   3.4554 356.7168 14.55718334202655

Verfolge CZ-6A DEB in Echtzeit mit AllMySat

Download on the App Store